Hovedside
METAR-TAF:

METAR-TAF

Lufthavner :

Vilhelmina, Sverige

breddegrad: 64-34-44N, lengdegrad: 016-50-00E, høyde over havet: 347 m

Gjeldene værobservasjon

Denne rapporten ble laget for 1 time og 14 minutter siden, klokken 09:50 UTC
Vind 5 kt fra skiftende retning
Temperatur 4°C
Luftfuktighet 81%
Trykk 1006 hPa
Sikt 10 km eller mer

METAR: ESNV 270950Z AUTO VRB05KT 9999 NCD 04/01 Q1006

Tid: 13:04 (11:04 UTC)


TAF: fraværende

Værobservasjoner og værvarsel for over 4000 flyplasser (METAR- og TAF-rapporter).

Tilgjengelige stasjoner er representert av de røde og gule prikkene på kartet.

Hold musepekeren over prikken for å se navnet på stasjonen.

Klikk så for å se værobservasjoner og -varsler.

For å forandre kartet kan du klikke på den grønne knappen med svart kryss for å zoome inn, på den grønne knappen med strek for å zoome ut, eller på de grønne pilene for å se tilstøtende kart.


METAR-TAF: